Date String (YYYY-MM-DD hh:mm:ss) UTC,Instrument flags,Ambient pressure (hPa),Sample flow (lpm),Bypass flow (lpm),Sample temperature (°C),Ambient temperature (°C),ASC tube jacket temperature (°C),LED temperature (°C),Box temperature (°C),Sample RH (%),Span deviation,Mass concentration (μg/m³),Mass concentration (μg/m³),Mass concentration (μg/m³)
DateTimeUTC,F1_M11,P_M11,Q1_M11,Q2_M11,T1_M11,T2_M11,T3_M11,T4_M11,T5_M11,U1_M11,ZSPAN_M11,X0_M11,X2_M11,X1_M11
2022-08-13 17:00:00,,0832.2,4.99,0.00,29.8,27.4,00.0,38.4,31.1,34.7,0000.0,0013.84,0005.75,0004.85
2022-08-13 17:01:00,,0832.1,5.01,0.00,29.8,27.5,00.0,38.4,31.2,34.6,0000.0,0014.03,0005.74,0004.86
2022-08-13 17:02:00,,0832.2,4.98,0.00,29.8,27.7,00.0,38.4,31.3,34.7,0000.0,0013.55,0005.70,0004.88
2022-08-13 17:03:00,,0832.1,5.01,0.00,29.8,27.9,00.0,38.4,31.3,34.9,0000.0,0012.66,0005.69,0004.90
2022-08-13 17:04:00,,0832.1,5.00,0.00,29.9,28.1,00.0,38.4,31.4,34.7,0000.0,0012.61,0005.68,0004.91
2022-08-13 17:05:00,,0832.1,5.00,0.00,30.0,28.2,00.0,38.4,31.5,34.7,0000.0,0012.75,0005.69,0004.92
2022-08-13 17:06:00,,0832.1,4.99,0.00,30.0,28.3,00.0,38.5,31.5,34.6,0000.0,0013.08,0005.66,0004.93
2022-08-13 17:07:00,,0832.1,4.99,0.00,30.0,27.9,00.0,38.4,31.3,34.3,0000.0,0013.53,0005.65,0004.92
2022-08-13 17:08:00,,0832.0,5.01,0.00,30.0,27.4,00.0,38.4,31.2,34.4,0000.0,0014.02,0005.62,0004.93
2022-08-13 17:09:00,,0832.1,4.99,0.00,29.9,27.2,00.0,38.4,31.2,34.4,0000.0,0014.14,0005.60,0004.93
2022-08-13 17:10:00,,0832.1,4.99,0.00,29.9,27.2,00.0,38.4,31.1,34.6,0000.0,0013.73,0005.59,0004.93
2022-08-13 17:11:00,,0832.1,4.99,0.00,29.8,27.4,00.0,38.4,31.1,34.9,0000.0,0013.35,0005.58,0004.92
2022-08-13 17:12:00,,0832.1,5.01,0.00,29.8,27.5,00.0,38.4,31.2,34.8,0000.0,0012.86,0005.61,0004.92
2022-08-13 17:13:00,,0832.1,5.00,0.00,29.9,27.7,00.0,38.4,31.3,34.7,0000.0,0012.85,0005.63,0004.92
2022-08-13 17:14:00,,0832.1,5.00,0.00,29.9,27.9,00.0,38.4,31.3,34.4,0000.0,0012.85,0005.64,0004.92
2022-08-13 17:15:00,,0832.1,5.00,0.00,30.0,28.1,00.0,38.4,31.4,34.4,0000.0,0012.37,0005.65,0004.94
2022-08-13 17:16:00,,0832.0,5.01,0.00,30.0,28.2,00.0,38.4,31.4,34.4,0000.0,0012.23,0005.67,0004.96
2022-08-13 17:17:00,,0832.1,5.00,0.00,30.0,28.2,00.0,38.4,31.4,34.6,0000.0,0011.98,0005.73,0004.98
2022-08-13 17:18:00,,0832.1,5.01,0.00,30.0,27.6,00.0,38.4,31.3,34.6,0000.0,0011.22,0005.74,0005.01
2022-08-13 17:19:00,,0832.0,5.00,0.00,29.9,27.3,00.0,38.4,31.2,34.6,0000.0,0010.57,0005.74,0005.03
2022-08-13 17:20:00,,0832.0,5.01,0.00,29.8,27.2,00.0,38.4,31.1,34.8,0000.0,0010.29,0005.78,0005.06
2022-08-13 17:21:00,,0832.0,5.00,0.00,29.8,27.3,00.0,38.4,31.1,34.9,0000.0,0010.13,0005.76,0005.08
2022-08-13 17:22:00,,0832.0,4.99,0.00,29.9,27.4,00.0,38.4,31.2,34.6,0000.0,0009.98,0005.76,0005.12
2022-08-13 17:23:00,,0832.1,5.01,0.00,29.9,27.6,00.0,38.4,31.2,34.6,0000.0,0009.92,0005.77,0005.13
2022-08-13 17:24:00,,0832.1,4.99,0.00,29.9,27.8,00.0,38.4,31.3,34.5,0000.0,0010.19,0005.82,0005.15
2022-08-13 17:25:00,,0832.1,5.00,0.00,29.9,27.9,00.0,38.4,31.3,34.7,0000.0,0010.61,0005.88,0005.19
2022-08-13 17:26:00,,0832.1,5.01,0.00,29.9,28.1,00.0,38.4,31.4,34.5,0000.0,0011.02,0005.92,0005.20
2022-08-13 17:27:00,,0832.1,5.00,0.00,30.0,28.1,00.0,38.4,31.4,34.5,0000.0,0011.78,0005.94,0005.23
2022-08-13 17:28:00,,0832.1,4.99,0.00,29.9,27.7,00.0,38.4,31.2,34.4,0000.0,0012.03,0005.90,0005.23
2022-08-13 17:29:00,,0832.1,5.00,0.00,29.9,27.2,00.0,38.3,31.1,34.8,0000.0,0012.33,0005.94,0005.23
2022-08-13 17:30:00,,0832.0,5.00,0.00,29.8,27.1,00.0,38.3,31.1,34.9,0000.0,0012.42,0006.01,0005.24
2022-08-13 17:31:00,,0832.0,4.99,0.00,29.8,27.2,00.0,38.3,31.1,34.9,0000.0,0012.81,0006.05,0005.24
2022-08-13 17:32:00,,0831.9,5.00,0.00,29.8,27.4,00.0,38.3,31.1,34.9,0000.0,0013.42,0006.09,0005.24
2022-08-13 17:33:00,,0832.0,5.01,0.00,29.9,27.5,00.0,38.3,31.2,34.6,0000.0,0013.59,0006.14,0005.24
2022-08-13 17:34:00,,0832.0,4.99,0.00,30.0,27.7,00.0,38.3,31.3,34.5,0000.0,0013.47,0006.13,0005.25
2022-08-13 17:35:00,,0831.9,5.00,0.00,30.0,27.9,00.0,38.4,31.4,34.6,0000.0,0014.02,0006.08,0005.25
2022-08-13 17:36:00,,0831.9,5.00,0.00,30.0,28.1,00.0,38.4,31.4,34.6,0000.0,0013.71,0006.02,0005.24
2022-08-13 17:37:00,,0832.0,5.00,0.00,30.1,28.2,00.0,38.4,31.4,34.3,0000.0,0013.39,0006.04,0005.24
2022-08-13 17:38:00,,0831.9,4.99,0.00,30.1,28.1,00.0,38.4,31.4,34.4,0000.0,0012.90,0006.08,0005.22
2022-08-13 17:39:00,,0831.9,5.01,0.00,30.0,27.6,00.0,38.4,31.2,34.4,0000.0,0012.72,0006.10,0005.22
2022-08-13 17:40:00,,0831.9,4.99,0.00,30.0,27.3,00.0,38.4,31.2,34.9,0000.0,0012.43,0006.04,0005.22
2022-08-13 17:41:00,,0831.8,5.01,0.00,29.9,27.2,00.0,38.4,31.2,34.6,0000.0,0013.06,0006.02,0005.22
2022-08-13 17:42:00,,0831.9,5.00,0.00,29.9,27.3,00.0,38.4,31.2,34.7,0000.0,0012.79,0005.96,0005.22
2022-08-13 17:43:00,,0831.7,5.00,0.00,29.9,27.5,00.0,38.4,31.2,34.5,0000.0,0012.53,0005.98,0005.23
2022-08-13 17:44:00,,0831.8,4.99,0.00,29.9,27.7,00.0,38.4,31.3,34.8,0000.0,0012.42,0005.96,0005.23
2022-08-13 17:45:00,,0831.7,5.01,0.00,30.0,27.9,00.0,38.4,31.3,34.9,0000.0,0012.44,0005.96,0005.22
2022-08-13 17:46:00,,0831.8,5.01,0.00,30.0,28.0,00.0,38.4,31.4,34.3,0000.0,0011.78,0005.98,0005.22
2022-08-13 17:47:00,,0831.8,5.00,0.00,30.1,28.2,00.0,38.5,31.5,34.3,0000.0,0011.64,0006.00,0005.22
2022-08-13 17:48:00,,0831.7,4.99,0.00,30.1,28.1,00.0,38.5,31.4,34.2,0000.0,0011.82,0005.95,0005.21
2022-08-13 17:49:00,,0831.7,5.01,0.00,30.1,27.6,00.0,38.4,31.2,34.4,0000.0,0011.80,0005.87,0005.21
2022-08-13 17:50:00,,0831.7,5.00,0.00,30.0,27.2,00.0,38.4,31.2,34.6,0000.0,0011.49,0005.89,0005.22
2022-08-13 17:51:00,,0831.7,5.00,0.00,30.0,27.2,00.0,38.4,31.1,34.8,0000.0,0011.58,0005.94,0005.22
2022-08-13 17:52:00,,0831.7,5.00,0.00,29.9,27.3,00.0,38.4,31.1,34.7,0000.0,0010.99,0005.95,0005.23
2022-08-13 17:53:00,,0831.7,5.01,0.00,29.8,27.4,00.0,38.4,31.1,34.8,0000.0,0011.10,0005.97,0005.24
2022-08-13 17:54:00,,0831.7,4.99,0.00,29.8,27.6,00.0,38.4,31.2,34.6,0000.0,0010.79,0005.96,0005.24
2022-08-13 17:55:00,,0831.8,5.03,0.00,29.8,27.8,00.0,38.4,31.3,34.7,0000.0,0010.83,0005.98,0005.25
2022-08-13 17:56:00,,0831.7,4.99,0.00,29.8,28.0,00.0,38.4,31.3,34.7,0000.0,0011.50,0006.03,0005.25
2022-08-13 17:57:00,,0831.7,4.99,0.00,29.9,28.1,00.0,38.4,31.4,34.8,0000.0,0012.00,0006.06,0005.26
2022-08-13 17:58:00,,0831.7,5.00,0.00,29.9,28.1,00.0,38.4,31.4,34.9,0000.0,0012.00,0006.07,0005.26
2022-08-13 17:59:00,,0831.7,5.01,0.00,29.8,27.6,00.0,38.4,31.2,35.0,0000.0,0011.69,0006.14,0005.28
